�������l�o���
Date,Time,MP-1(��Sv/h),MP-2(��Sv/h),MP-3(��Sv/h),MP-4(��Sv/h),MP-5(��Sv/h),MP-6(��Sv/h),MP-7(��Sv/h),MP-8(��Sv/h),����,����(m/s),���J
2021/04/17,00:00,0.628,0.932,0.586,1.139,0.816,0.370,0.650,0.611,��,8.0,��
2021/04/17,00:10,0.630,0.930,0.586,1.138,0.816,0.370,0.649,0.611,��,7.8,��
2021/04/17,00:20,0.628,0.933,0.589,1.139,0.818,0.372,0.650,0.610,��,8.3,��
2021/04/17,00:30,0.629,0.931,0.586,1.140,0.816,0.371,0.651,0.612,��,8.7,��
2021/04/17,00:40,0.629,0.932,0.588,1.138,0.817,0.372,0.651,0.610,��,8.9,��
2021/04/17,00:50,0.629,0.931,0.586,1.139,0.816,0.371,0.650,0.610,��,8.3,��
2021/04/17,01:00,0.631,0.930,0.586,1.139,0.817,0.369,0.650,0.610,��,9.0,��
2021/04/17,01:10,0.630,0.931,0.588,1.138,0.816,0.371,0.650,0.611,��,7.8,��
2021/04/17,01:20,0.631,0.932,0.588,1.140,0.817,0.372,0.650,0.611,��,8.1,��
2021/04/17,01:30,0.629,0.929,0.587,1.138,0.815,0.371,0.651,0.611,��,8.9,��
2021/04/17,01:40,0.631,0.931,0.587,1.140,0.817,0.372,0.649,0.611,��,7.9,��
2021/04/17,01:50,0.630,0.930,0.588,1.139,0.816,0.371,0.650,0.611,��,9.4,��
2021/04/17,02:00,0.630,0.932,0.588,1.139,0.816,0.371,0.649,0.612,��,8.3,��
2021/04/17,02:10,0.631,0.930,0.587,1.140,0.818,0.372,0.650,0.609,��,8.9,��
2021/04/17,02:20,0.631,0.931,0.587,1.139,0.815,0.371,0.650,0.610,��,8.5,��
2021/04/17,02:30,0.631,0.931,0.587,1.137,0.816,0.371,0.652,0.611,��,8.0,��
2021/04/17,02:40,0.629,0.931,0.588,1.139,0.818,0.371,0.652,0.610,��쐼,7.6,��
2021/04/17,02:50,0.631,0.930,0.586,1.140,0.817,0.372,0.650,0.610,��쐼,7.4,��
2021/04/17,03:00,0.630,0.932,0.586,1.139,0.816,0.372,0.651,0.610,��,7.1,��
2021/04/17,03:10,0.631,0.931,0.586,1.140,0.816,0.371,0.651,0.610,��,7.4,��
2021/04/17,03:20,0.630,0.931,0.588,1.138,0.817,0.373,0.650,0.610,��,6.9,��
2021/04/17,03:30,0.632,0.931,0.589,1.137,0.819,0.372,0.651,0.613,��,7.1,��
2021/04/17,03:40,0.629,0.932,0.588,1.139,0.817,0.370,0.650,0.612,��,7.9,��
2021/04/17,03:50,0.631,0.929,0.588,1.139,0.819,0.371,0.651,0.611,��쐼,8.0,��
2021/04/17,04:00,0.631,0.929,0.587,1.141,0.819,0.372,0.651,0.611,��쐼,7.7,��
2021/04/17,04:10,0.630,0.931,0.586,1.139,0.818,0.372,0.652,0.612,��,7.1,��
2021/04/17,04:20,0.630,0.933,0.589,1.139,0.817,0.371,0.651,0.612,��,8.0,��
2021/04/17,04:30,0.630,0.932,0.588,1.138,0.815,0.372,0.652,0.611,��,7.6,��
2021/04/17,04:40,0.632,0.931,0.588,1.139,0.818,0.370,0.653,0.610,��,7.0,��
2021/04/17,04:50,0.630,0.933,0.587,1.139,0.816,0.372,0.650,0.611,��,7.6,��
2021/04/17,05:00,0.629,0.931,0.587,1.138,0.816,0.372,0.649,0.610,��,6.9,��
2021/04/17,05:10,0.630,0.932,0.587,1.139,0.817,0.372,0.650,0.611,��,5.6,��
2021/04/17,05:20,0.629,0.932,0.587,1.141,0.818,0.371,0.651,0.612,��,6.1,��
2021/04/17,05:30,0.629,0.931,0.589,1.140,0.818,0.371,0.651,0.610,��,6.4,��
2021/04/17,05:40,0.632,0.931,0.587,1.141,0.817,0.371,0.651,0.611,��,6.8,��
2021/04/17,05:50,0.629,0.931,0.587,1.139,0.818,0.370,0.650,0.611,��,5.4,��
2021/04/17,06:00,0.629,0.932,0.588,1.141,0.816,0.372,0.651,0.612,��,5.9,��
2021/04/17,06:10,0.631,0.930,0.586,1.141,0.817,0.372,0.652,0.610,��,6.0,�L
2021/04/17,06:20,0.631,0.931,0.588,1.142,0.818,0.371,0.651,0.611,��,5.9,�L
2021/04/17,06:30,0.630,0.932,0.588,1.139,0.816,0.370,0.652,0.611,��쐼,5.8,�L
2021/04/17,06:40,0.631,0.930,0.588,1.140,0.817,0.371,0.652,0.611,��,4.8,�L
2021/04/17,06:50,0.630,0.932,0.587,1.140,0.818,0.372,0.651,0.611,��,4.9,�L
2021/04/17,07:00,0.632,0.934,0.587,1.140,0.817,0.373,0.651,0.611,��,4.7,�L
2021/04/17,07:10,0.629,0.933,0.587,1.141,0.819,0.372,0.652,0.610,��,6.4,�L
2021/04/17,07:20,0.632,0.933,0.587,1.138,0.818,0.372,0.651,0.611,��,8.0,�L
2021/04/17,07:30,0.630,0.931,0.589,1.140,0.816,0.371,0.650,0.609,��쐼,7.2,��
2021/04/17,07:40,0.631,0.933,0.588,1.142,0.820,0.371,0.651,0.612,��쐼,7.0,��
2021/04/17,07:50,0.631,0.931,0.588,1.139,0.819,0.371,0.651,0.611,��,5.7,��
2021/04/17,08:00,0.631,0.933,0.588,1.140,0.818,0.372,0.649,0.611,��쓌,7.3,�L
2021/04/17,08:10,0.633,0.930,0.587,1.142,0.818,0.370,0.650,0.612,��,7.6,�L
2021/04/17,08:20,0.630,0.930,0.588,1.141,0.818,0.372,0.651,0.611,��,6.5,��
2021/04/17,08:30,0.632,0.930,0.588,1.140,0.819,0.372,0.650,0.612,��,6.3,��
2021/04/17,08:40,0.632,0.931,0.587,1.137,0.818,0.372,0.650,0.611,��,6.1,��
2021/04/17,08:50,0.631,0.930,0.588,1.140,0.818,0.371,0.651,0.611,��,5.1,��
2021/04/17,09:00,0.630,0.931,0.587,1.140,0.818,0.371,0.651,0.612,��,5.2,��
2021/04/17,09:10,0.632,0.926,0.587,1.138,0.819,0.371,0.650,0.612,��,6.0,��
2021/04/17,09:20,0.631,0.930,0.588,1.142,0.819,0.371,0.651,0.610,��쐼,6.9,��
2021/04/17,09:30,0.631,0.930,0.588,1.141,0.820,0.370,0.650,0.612,��쐼,6.4,��
2021/04/17,09:40,0.631,0.929,0.589,1.140,0.818,0.371,0.651,0.611,��쐼,6.4,��
2021/04/17,09:50,0.628,0.930,0.588,1.142,0.817,0.371,0.649,0.610,��쐼,6.1,��
2021/04/17,10:00,0.630,0.928,0.589,1.142,0.817,0.371,0.650,0.610,��쐼,6.0,��
2021/04/17,10:10,0.629,0.928,0.588,1.143,0.817,0.371,0.651,0.609,��쐼,10.5,��
2021/04/17,10:20,0.627,0.928,0.588,1.143,0.816,0.370,0.651,0.608,��쐼,6.4,�L
2021/04/17,10:30,0.627,0.926,0.589,1.140,0.817,0.371,0.650,0.609,��쐼,8.0,�L
2021/04/17,10:40,0.629,0.926,0.589,1.141,0.818,0.370,0.651,0.609,�쐼,5.2,��
2021/04/17,10:50,0.628,0.927,0.590,1.140,0.816,0.370,0.651,0.610,��쐼,4.5,��
2021/04/17,11:00,0.629,0.929,0.589,1.140,0.816,0.372,0.653,0.610,��,6.4,��
2021/04/17,11:10,0.631,0.927,0.588,1.140,0.816,0.371,0.651,0.610,��쓌,6.8,��
2021/04/17,11:20,0.630,0.929,0.590,1.143,0.820,0.371,0.649,0.608,��쓌,9.9,��
2021/04/17,11:30,0.630,0.930,0.589,1.142,0.817,0.371,0.651,0.611,��쓌,10.2,��
2021/04/17,11:40,0.630,0.927,0.587,1.139,0.817,0.372,0.652,0.608,��쓌,10.3,��
2021/04/17,11:50,0.630,0.928,0.586,1.139,0.818,0.371,0.651,0.607,��쓌,10.5,�L
2021/04/17,12:00,0.629,0.927,0.586,1.143,0.816,0.370,0.652,0.613,��쓌,9.8,�L
2021/04/17,12:10,0.628,0.928,0.585,1.142,0.816,0.370,0.651,0.609,��쓌,8.3,�L
2021/04/17,12:20,0.628,0.929,0.584,1.143,0.816,0.370,0.651,0.610,��쓌,8.4,�L
2021/04/17,12:30,0.630,0.926,0.586,1.142,0.818,0.371,0.651,0.609,��,7.1,�L
2021/04/17,12:40,0.629,0.927,0.587,1.143,0.819,0.372,0.652,0.610,��,8.3,�L
2021/04/17,12:50,0.629,0.926,0.588,1.141,0.817,0.371,0.651,0.608,��,7.8,��
2021/04/17,13:00,0.631,0.924,0.589,1.142,0.816,0.370,0.650,0.610,��쓌,8.5,�L
2021/04/17,13:10,0.630,0.927,0.589,1.143,0.815,0.371,0.651,0.608,��,8.0,��
2021/04/17,13:20,0.630,0.926,0.589,1.144,0.817,0.373,0.653,0.610,��,8.7,��
2021/04/17,13:30,0.630,0.926,0.589,1.144,0.816,0.370,0.652,0.610,��,7.3,��
2021/04/17,13:40,0.631,0.928,0.588,1.143,0.817,0.373,0.650,0.609,��,10.2,��
2021/04/17,13:50,0.632,0.929,0.589,1.143,0.816,0.372,0.651,0.610,��,8.7,��
2021/04/17,14:00,0.631,0.926,0.589,1.142,0.817,0.374,0.652,0.611,��,10.5,��
2021/04/17,14:10,0.631,0.926,0.588,1.144,0.818,0.372,0.652,0.610,��쓌,10.2,��
2021/04/17,14:20,0.631,0.928,0.587,1.146,0.816,0.373,0.653,0.610,��쓌,10.6,��
2021/04/17,14:30,0.630,0.928,0.586,1.144,0.817,0.372,0.652,0.610,��,9.8,�L
2021/04/17,14:40,0.628,0.929,0.587,1.143,0.816,0.371,0.651,0.609,��,10.5,��
2021/04/17,14:50,0.632,0.928,0.586,1.145,0.818,0.373,0.651,0.610,��,8.3,�L
2021/04/17,15:00,0.629,0.929,0.586,1.144,0.817,0.371,0.650,0.609,��,9.4,��
2021/04/17,15:10,0.629,0.930,0.588,1.143,0.816,0.372,0.651,0.609,��,8.8,��
2021/04/17,15:20,0.630,0.928,0.589,1.144,0.818,0.372,0.651,0.609,��,8.9,��
2021/04/17,15:30,0.628,0.931,0.588,1.144,0.817,0.371,0.651,0.610,��,9.4,��
2021/04/17,15:40,0.630,0.931,0.588,1.144,0.818,0.372,0.652,0.610,��,7.8,��
2021/04/17,15:50,0.631,0.930,0.588,1.143,0.818,0.372,0.652,0.610,��쓌,8.6,��
2021/04/17,16:00,0.632,0.930,0.586,1.143,0.817,0.372,0.653,0.610,��쓌,7.9,��
2021/04/17,16:10,0.630,0.930,0.589,1.144,0.818,0.372,0.651,0.609,��쓌,9.9,��
2021/04/17,16:20,0.632,0.932,0.589,1.144,0.816,0.372,0.652,0.610,��,10.0,��
2021/04/17,16:30,0.632,0.927,0.590,1.146,0.819,0.372,0.651,0.610,��쓌,8.2,��
2021/04/17,16:40,0.632,0.932,0.590,1.145,0.817,0.371,0.653,0.612,��쓌,9.1,�L
2021/04/17,16:50,0.631,0.930,0.589,1.142,0.816,0.373,0.651,0.610,��,7.5,�L
2021/04/17,17:00,0.633,0.932,0.591,1.143,0.818,0.371,0.651,0.611,��,6.8,��
2021/04/17,17:10,0.629,0.930,0.591,1.146,0.818,0.373,0.650,0.611,��,6.1,��
2021/04/17,17:20,0.632,0.930,0.589,1.144,0.816,0.372,0.651,0.611,��쓌,9.3,�L
2021/04/17,17:30,0.630,0.926,0.586,1.143,0.810,0.372,0.649,0.611,��,8.8,�L
2021/04/17,17:40,0.630,0.922,0.586,1.141,0.810,0.372,0.650,0.610,��,8.6,��
2021/04/17,17:50,0.630,0.923,0.586,1.142,0.808,0.371,0.649,0.609,��,8.2,�L
2021/04/17,18:00,0.630,0.924,0.585,1.138,0.808,0.372,0.650,0.610,��,9.6,�L
2021/04/17,18:10,0.619,0.914,0.580,1.130,0.799,0.370,0.647,0.604,��,8.8,�L
2021/04/17,18:20,0.612,0.906,0.578,1.125,0.792,0.369,0.644,0.605,��,8.8,�L
2021/04/17,18:30,0.611,0.898,0.576,1.116,0.785,0.369,0.641,0.602,��,9.2,�L
2021/04/17,18:40,0.610,0.892,0.576,1.111,0.784,0.369,0.641,0.600,��,9.0,�L
2021/04/17,18:50,0.612,0.896,0.575,1.111,0.784,0.369,0.641,0.600,��,8.9,�L
2021/04/17,19:00,0.612,0.893,0.575,1.109,0.785,0.368,0.642,0.600,��,10.5,�L
2021/04/17,19:10,0.609,0.892,0.576,1.106,0.783,0.367,0.640,0.601,��,9.8,�L
2021/04/17,19:20,0.609,0.890,0.574,1.103,0.781,0.370,0.639,0.599,��쓌,10.6,�L
2021/04/17,19:30,0.610,0.887,0.574,1.101,0.779,0.367,0.639,0.600,��쓌,10.9,�L
2021/04/17,19:40,0.609,0.889,0.575,1.099,0.778,0.368,0.640,0.601,��쓌,10.3,�L
2021/04/17,19:50,0.612,0.890,0.575,1.100,0.781,0.367,0.639,0.599,��쓌,12.7,�L
2021/04/17,20:00,0.612,0.891,0.575,1.100,0.781,0.369,0.640,0.599,��쓌,13.3,�L
2021/04/17,20:10,0.610,0.889,0.575,1.101,0.779,0.368,0.638,0.600,��쓌,14.4,�L
2021/04/17,20:20,0.609,0.885,0.571,1.092,0.775,0.368,0.637,0.598,��쓌,13.8,�L
2021/04/17,20:30,0.609,0.887,0.572,1.095,0.776,0.368,0.638,0.599,��쓌,13.5,�L
2021/04/17,20:40,0.610,0.889,0.572,1.095,0.778,0.368,0.638,0.599,��,10.3,�L
2021/04/17,20:50,0.611,0.891,0.573,1.097,0.779,0.366,0.638,0.600,��쓌,10.2,�L
2021/04/17,21:00,0.612,0.890,0.575,1.096,0.779,0.368,0.639,0.602,��쓌,11.9,�L
2021/04/17,21:10,0.611,0.889,0.572,1.096,0.774,0.369,0.637,0.600,��,10.2,�L
2021/04/17,21:20,0.605,0.880,0.570,1.083,0.764,0.364,0.633,0.597,��,10.8,�L
2021/04/17,21:30,0.608,0.883,0.570,1.085,0.770,0.367,0.636,0.597,��쓌,12.0,�L
2021/04/17,21:40,0.608,0.886,0.570,1.090,0.771,0.367,0.635,0.599,��쓌,13.8,�L
2021/04/17,21:50,0.608,0.887,0.570,1.087,0.769,0.366,0.634,0.596,��쓌,15.7,�L
2021/04/17,22:00,0.608,0.886,0.570,1.085,0.768,0.366,0.635,0.598,��쓌,14.9,�L
2021/04/17,22:10,0.607,0.883,0.571,1.089,0.769,0.367,0.635,0.597,��쓌,13.8,�L
2021/04/17,22:20,0.608,0.886,0.572,1.088,0.768,0.368,0.636,0.598,��,12.0,�L
2021/04/17,22:30,0.610,0.887,0.570,1.089,0.770,0.368,0.638,0.598,��,12.4,�L
2021/04/17,22:40,0.611,0.887,0.571,1.089,0.772,0.367,0.635,0.598,��쓌,13.3,�L
2021/04/17,22:50,0.608,0.887,0.569,1.088,0.768,0.368,0.637,0.598,��쓌,14.1,�L
2021/04/17,23:00,0.609,0.887,0.570,1.089,0.771,0.367,0.636,0.597,��쓌,14.1,�L
2021/04/17,23:10,0.610,0.886,0.570,1.090,0.771,0.368,0.638,0.601,��쓌,13.6,�L
2021/04/17,23:20,0.609,0.889,0.570,1.093,0.771,0.369,0.639,0.599,��쓌,12.4,�L
2021/04/17,23:30,0.609,0.884,0.569,1.090,0.769,0.368,0.637,0.596,��쓌,12.4,�L
2021/04/17,23:40,0.606,0.881,0.569,1.090,0.769,0.368,0.636,0.598,��쓌,11.6,�L
2021/04/17,23:50,0.605,0.876,0.567,1.086,0.764,0.368,0.634,0.597,��쓌,10.2,�L
